Flag for Vietnam Weather past 2 weeks in Ho Chi Minh, Vietnam

Now
84 °F

Broken clouds.


Feels Like: 94 °F
Forecast: 77 / 88 °F
Wind: 12 mph from Southwest

Location: Ho Chi Minh

Current Time: Jul 30, 2014 at 4:08:03 PM

Latest Report: Jul 30, 2014 at 3:30 PM


Visibility: N/A

Pressure: 29.68 "Hg

Humidity: 79%

Dew point: 77 °F

Location of Ho Chi MinhLocation

Historic Weather in Ho Chi Minh — Graph

°F

Ho Chi Minh temperature yesterday

Maximum temperature yesterday: 91 °F (at 1:30 PM)
Minimum temperature yesterday: 75 °F (at 12:00 AM)
Average temperature yesterday: 80 °F

Past Weeks' High & Low Weather Summary

 TemperatureHumidityPressure
High91 °F (Jul 16, 1:00 PM)100% (Jul 15, 7:30 PM)29.86 "Hg (Jul 15, 7:30 PM)
Low73 °F (Jul 18, 12:30 PM)56% (Jul 16, 2:30 PM)29.62 "Hg (Jul 17, 2:30 PM)
Average81 °F90%29.76 "Hg
* Reported Jul 15 3:00 PM — Jul 30 3:00 PM, Ho Chi Minh, Weather by CustomWeather, © 2014

Note: Actual official high and low records may vary slightly from our data, if they occured in-between our weather recording intervals... More about our weather records

Advertising

Ho Chi Minh weather history for previous 24 hours

 ConditionsComfort  
Time TempWeatherWind HumidityBarometerVisibility
3:00 PM
Jul 30
84 °FSprinkles. Broken clouds.14 mph79%29.68 "Hg4 mi
2:30 PM86 °FSprinkles. Broken clouds.16 mph70%29.68 "Hg5 mi
2:00 PM88 °FPartly sunny.16 mph70%29.71 "HgN/A
1:30 PM90 °FPartly sunny.17 mph63%29.71 "HgN/A
1:00 PM90 °FPartly sunny.18 mph63%29.71 "HgN/A
12:30 PM88 °FBroken clouds.20 mph62%29.74 "HgN/A
12:00 PM88 °FBroken clouds.16 mph62%29.74 "HgN/A
11:30 AM88 °FBroken clouds.14 mph66%29.74 "HgN/A
11:00 AM86 °FBroken clouds.13 mph75%29.74 "HgN/A
10:30 AM86 °FPartly sunny.13 mph79%29.77 "HgN/A
10:00 AM84 °FOvercast.14 mph84%29.77 "HgN/A
9:30 AM84 °FOvercast.14 mph79%29.77 "HgN/A
9:00 AM82 °FPartly sunny.12 mph84%29.74 "HgN/A
8:30 AM82 °FPartly sunny.13 mph84%29.77 "HgN/A
8:00 AM81 °FOvercast.8 mph89%29.77 "Hg5 mi
7:30 AM81 °FMore clouds than sun.9 mph89%29.77 "Hg5 mi
7:00 AM81 °FMore clouds than sun.8 mph89%29.77 "Hg5 mi
6:30 AM79 °FMore clouds than sun.6 mph94%29.74 "Hg5 mi
6:00 AM79 °FPartly sunny.6 mph94%29.74 "Hg6 mi
5:30 AM79 °FPassing clouds.5 mph89%29.74 "Hg6 mi
5:00 AM79 °FPassing clouds.2 mph94%29.74 "Hg5 mi
4:30 AM79 °FPassing clouds.2 mph89%29.71 "Hg5 mi
4:00 AM79 °FPassing clouds.3 mph89%29.74 "Hg6 mi
3:30 AM79 °FPassing clouds.3 mph89%29.74 "Hg6 mi
3:00 AM79 °FPartly cloudy.6 mph89%29.74 "Hg5 mi
2:30 AM79 °FLight rain. Partly cloudy.3 mph89%29.74 "Hg5 mi
1:00 AM79 °FLight rain. Mostly cloudy.6 mph94%29.74 "Hg6 mi
12:30 AM79 °FLight rain. Mostly cloudy.7 mph94%29.77 "Hg6 mi
12:00 AM79 °FLight rain. Mostly cloudy.7 mph89%29.77 "Hg6 mi
11:30 PM
Jul 29
79 °FLight rain. Mostly cloudy.7 mph89%29.77 "Hg6 mi
11:00 PM81 °FLight rain. Mostly cloudy.9 mph89%29.80 "Hg6 mi
10:30 PM81 °FLight rain. Partly cloudy.7 mph89%29.80 "Hg6 mi
10:00 PM81 °FLight rain. Partly cloudy.8 mph89%29.80 "Hg6 mi
9:30 PM81 °FLight rain. Partly cloudy.8 mph89%29.77 "Hg5 mi
9:00 PM81 °FLight rain. Partly cloudy.7 mph89%29.77 "Hg5 mi
8:30 PM81 °FLight rain. Partly cloudy.9 mph89%29.77 "Hg5 mi
8:00 PM81 °FLight rain. Mostly cloudy.6 mph89%29.74 "Hg5 mi
7:30 PM79 °FLight rain. Partly cloudy.5 mph94%29.74 "Hg5 mi
7:00 PM81 °FLight rain. Partly cloudy.6 mph89%29.74 "Hg5 mi
6:30 PM79 °FLight rain. Mostly cloudy.5 mph94%29.71 "Hg5 mi
6:00 PM79 °FLight rain. More clouds than sun.5 mph94%29.71 "Hg4 mi
5:30 PM77 °FLight rain. More clouds than sun.3 mph94%29.68 "Hg4 mi
5:00 PM77 °FThunderstorms. More clouds than sun.7 mph89%29.68 "Hg2 mi
4:30 PM75 °FLots of rain. Broken clouds.21 mph94%29.68 "Hg1 mi
4:00 PM81 °FSprinkles. Broken clouds.15 mph84%29.65 "Hg4 mi
Weather by CustomWeather, © 2014

See weather overviewHow to use our weather pages